sat.trackr.live / text

‹ back to catalog

STARLINK-33893

NORAD 64253 · 2025-119W

PAYLOAD ACTIVE UNKNOWN

§ Identity

Operator
Country
US
Launch date
2025-06-03
Launch site
AFETR
Launch vehicle
Mass (kg)
RCS (m²)

Purposes: comms

External: N2YO · Heavens-Above · Gunter

§ Orbital elements

Epoch: 2026-09-20T09:19:11.255808Z

Period
94.27 min
Inclination
43.0021°
Eccentricity
0.0001931
Mean motion
15.27536247 rev/d
Perigee alt
481.9 km
Apogee alt
484.5 km
Semi-major
6,861.3 km
B*
-1.9475e-4
RAAN
287.6925°
Arg perigee
266.5004°
Mean anomaly
93.5627°
Rev number
7,394

§ Raw data

STARLINK-338931 64253U 25119W   26263.38832472 -.00005610  00000+0 -19475-3 0  99962 64253  43.0021 287.6925 0001931 266.5004  93.5627 15.27536247 73945

JSON: /api/v1/satellites/64253 · /tle

For live sub-satellite position, see the globe view (requires WebGL).

§ Visibility from observer

Set your observer location to see the next 7 days of passes ≥ 10°. The values pass through the URL so the page stays shareable.

No JS? Fill the form by hand. The geolocation button needs JavaScript.